Location: Gull Harbor
(47.1000°N, 122.9000°W)
Time: 17:36:54
(UTC-08:00)

BlueWalker 3 - Pass Details

Date: 21 December 2025
Orbit: 452 x 463 km, 53.2° (Epoch: 13 January)

Event Time Altitude Azimuth Distance (km) Brightness Sun altitude
Rises 05:24:59 0° 182° (S) 2,446 5.5 -24.4°
Reaches altitude 10° 05:28:34 10° 144° (SE) 1,584 5.0 -23.8°
Maximum altitude 05:29:30 11° 129° (SE) 1,536 5.2 -23.6°
Drops below altitude 10° 05:30:26 10° 113° (ESE) 1,589 5.5 -23.5°
Sets 05:34:03 0° 75° (ENE) 2,472 6.5 -22.9°
